Time,TemperatureF,DewpointF,PressureIn,WindDirection,WindDirectionDegrees,WindSpeedMPH,WindSpeedGustMPH,Humidity,HourlyPrecipIn,Conditions,Clouds,dailyrainin,SoftwareType,DateUTC
2013-08-09 00:00:00,73.0,70.0,-100.00,South,189,2.0,9.0,89,0.00,,,-99.99,,2013-08-09 04:00:00,
2013-08-09 00:33:00,73.0,70.0,-100.00,South,189,2.0,9.0,89,0.00,,,-99.99,,2013-08-09 04:33:00,
2013-08-09 00:43:00,73.0,70.0,-100.00,South,189,2.0,9.0,89,0.00,,,-99.99,,2013-08-09 04:43:00,
2013-08-09 00:53:00,73.0,70.0,-100.00,South,189,2.0,9.0,89,0.00,,,-99.99,,2013-08-09 04:53:00,
2013-08-09 01:00:00,74.0,70.0,-100.00,SSW,212,5.0,10.0,89,0.00,,,-99.99,,2013-08-09 05:00:00,
2013-08-09 01:43:00,74.0,70.0,-100.00,SSW,212,5.0,10.0,89,0.00,,,-99.99,,2013-08-09 05:43:00,
2013-08-09 01:52:00,74.0,70.0,-100.00,SSW,212,5.0,10.0,89,0.00,,,-99.99,,2013-08-09 05:52:00,
2013-08-09 02:00:00,73.0,71.0,-100.00,SSW,194,0.0,8.0,93,0.00,,,-99.99,,2013-08-09 06:00:00,
2013-08-09 02:32:00,73.0,71.0,-100.00,SSW,194,0.0,8.0,93,0.00,,,-99.99,,2013-08-09 06:32:00,
2013-08-09 02:43:00,73.0,71.0,-100.00,SSW,194,0.0,8.0,93,0.00,,,-99.99,,2013-08-09 06:43:00,
2013-08-09 02:52:00,73.0,71.0,-100.00,SSW,194,0.0,8.0,93,0.00,,,-99.99,,2013-08-09 06:52:00,
2013-08-09 03:00:00,74.0,71.0,-100.00,South,191,6.0,15.0,92,0.00,,,-99.99,,2013-08-09 07:00:00,
2013-08-09 03:33:00,74.0,71.0,-100.00,South,191,6.0,15.0,92,0.00,,,-99.99,,2013-08-09 07:33:00,
2013-08-09 03:43:00,74.0,71.0,-100.00,South,191,6.0,15.0,92,0.00,,,-99.99,,2013-08-09 07:43:00,
2013-08-09 03:53:00,74.0,71.0,-100.00,South,191,6.0,15.0,92,0.00,,,-99.99,,2013-08-09 07:53:00,
2013-08-09 04:00:00,74.0,71.0,-100.00,SSW,209,3.0,14.0,92,0.00,,,-99.99,,2013-08-09 08:00:00,
2013-08-09 04:32:00,74.0,71.0,-100.00,SSW,209,3.0,14.0,92,0.00,,,-99.99,,2013-08-09 08:32:00,
2013-08-09 04:43:00,74.0,71.0,-100.00,SSW,209,3.0,14.0,92,0.00,,,-99.99,,2013-08-09 08:43:00,
2013-08-09 04:53:00,74.0,71.0,-100.00,SSW,209,3.0,14.0,92,0.00,,,-99.99,,2013-08-09 08:53:00,
2013-08-09 05:00:00,74.0,72.0,-100.00,SSW,210,3.0,13.0,93,0.00,,,-99.99,,2013-08-09 09:00:00,
2013-08-09 05:32:00,74.0,72.0,-100.00,SSW,210,3.0,13.0,93,0.00,,,-99.99,,2013-08-09 09:32:00,
2013-08-09 05:43:00,74.0,72.0,-100.00,SSW,210,3.0,13.0,93,0.00,,,-99.99,,2013-08-09 09:43:00,
2013-08-09 05:52:00,74.0,72.0,-100.00,SSW,210,3.0,13.0,93,0.00,,,-99.99,,2013-08-09 09:52:00,
2013-08-09 06:00:00,75.0,72.0,-100.00,SSE,166,3.0,11.0,91,0.00,,,-99.99,,2013-08-09 10:00:00,
2013-08-09 06:43:00,75.0,72.0,-100.00,SSE,166,3.0,11.0,91,0.00,,,-99.99,,2013-08-09 10:43:00,
2013-08-09 06:53:00,75.0,72.0,-100.00,SSE,166,3.0,11.0,91,0.00,,,-99.99,,2013-08-09 10:53:00,
2013-08-09 07:00:00,75.0,72.0,-100.00,SSE,154,3.0,12.0,92,0.00,,,-99.99,,2013-08-09 11:00:00,
2013-08-09 07:33:00,75.0,72.0,-100.00,SSE,154,3.0,12.0,92,0.00,,,-99.99,,2013-08-09 11:33:00,
2013-08-09 07:43:00,75.0,72.0,-100.00,SSE,154,3.0,12.0,92,0.00,,,-99.99,,2013-08-09 11:43:00,
2013-08-09 07:53:00,75.0,72.0,-100.00,SSE,154,3.0,12.0,92,0.00,,,-99.99,,2013-08-09 11:53:00,
2013-08-09 08:00:00,76.0,72.0,-100.00,SSW,210,5.0,11.0,88,0.00,,,-99.99,,2013-08-09 12:00:00,
2013-08-09 08:32:00,76.0,72.0,-100.00,SSW,210,5.0,11.0,88,0.00,,,-99.99,,2013-08-09 12:32:00,
2013-08-09 08:43:00,76.0,72.0,-100.00,SSW,210,5.0,11.0,88,0.00,,,-99.99,,2013-08-09 12:43:00,
2013-08-09 08:52:00,76.0,72.0,-100.00,SSW,210,5.0,11.0,88,0.00,,,-99.99,,2013-08-09 12:52:00,
2013-08-09 09:00:00,78.0,73.0,-100.00,South,172,2.0,13.0,86,0.00,,,-99.99,,2013-08-09 13:00:00,
2013-08-09 09:32:00,78.0,73.0,-100.00,South,172,2.0,13.0,86,0.00,,,-99.99,,2013-08-09 13:32:00,
2013-08-09 09:43:00,78.0,73.0,-100.00,South,172,2.0,13.0,86,0.00,,,-99.99,,2013-08-09 13:43:00,
2013-08-09 09:52:00,78.0,73.0,-100.00,South,172,2.0,13.0,86,0.00,,,-99.99,,2013-08-09 13:52:00,
2013-08-09 10:00:00,79.0,73.0,-100.00,SSW,210,5.0,12.0,81,0.00,,,-99.99,,2013-08-09 14:00:00,
2013-08-09 10:43:00,79.0,73.0,-100.00,SSW,210,5.0,12.0,81,0.00,,,-99.99,,2013-08-09 14:43:00,
2013-08-09 10:53:00,79.0,73.0,-100.00,SSW,210,5.0,12.0,81,0.00,,,-99.99,,2013-08-09 14:53:00,
2013-08-09 11:00:00,81.0,74.0,-100.00,South,181,5.0,11.0,79,0.00,,,-99.99,,2013-08-09 15:00:00,
2013-08-09 11:33:00,81.0,74.0,-100.00,South,181,5.0,11.0,79,0.00,,,-99.99,,2013-08-09 15:33:00,
2013-08-09 11:44:00,81.0,74.0,-100.00,South,181,5.0,11.0,79,0.00,,,-99.99,,2013-08-09 15:44:00,
2013-08-09 11:53:00,81.0,74.0,-100.00,South,181,5.0,11.0,79,0.00,,,-99.99,,2013-08-09 15:53:00,
2013-08-09 12:00:00,83.0,73.0,-100.00,SW,220,7.0,17.0,71,0.00,,,-99.99,,2013-08-09 16:00:00,
2013-08-09 12:32:00,83.0,73.0,-100.00,SW,220,7.0,17.0,71,0.00,,,-99.99,,2013-08-09 16:32:00,
2013-08-09 12:43:00,83.0,73.0,-100.00,SW,220,7.0,17.0,71,0.00,,,-99.99,,2013-08-09 16:43:00,
2013-08-09 12:53:00,83.0,73.0,-100.00,SW,220,7.0,17.0,71,0.00,,,-99.99,,2013-08-09 16:53:00,
2013-08-09 13:00:00,84.0,73.0,-100.00,SSW,203,11.0,16.0,68,0.00,,,-99.99,,2013-08-09 17:00:00,
2013-08-09 13:33:00,84.0,73.0,-100.00,SSW,203,11.0,16.0,68,0.00,,,-99.99,,2013-08-09 17:33:00,
2013-08-09 13:43:00,84.0,73.0,-100.00,SSW,203,11.0,16.0,68,0.00,,,-99.99,,2013-08-09 17:43:00,
2013-08-09 13:52:00,84.0,73.0,-100.00,SSW,203,11.0,16.0,68,0.00,,,-99.99,,2013-08-09 17:52:00,
2013-08-09 14:00:00,83.0,73.0,-100.00,SW,228,8.0,16.0,73,0.00,,,-99.99,,2013-08-09 18:00:00,
2013-08-09 14:32:00,83.0,73.0,-100.00,SW,228,8.0,16.0,73,0.00,,,-99.99,,2013-08-09 18:32:00,
2013-08-09 14:43:00,83.0,73.0,-100.00,SW,228,8.0,16.0,73,0.00,,,-99.99,,2013-08-09 18:43:00,
2013-08-09 14:53:00,83.0,73.0,-100.00,SW,228,8.0,16.0,73,0.00,,,-99.99,,2013-08-09 18:53:00,
2013-08-09 15:00:00,83.0,73.0,-100.00,SSW,210,3.0,16.0,71,0.00,,,-99.99,,2013-08-09 19:00:00,
2013-08-09 15:43:00,83.0,73.0,-100.00,SSW,210,3.0,16.0,71,0.00,,,-99.99,,2013-08-09 19:43:00,
2013-08-09 15:52:00,83.0,73.0,-100.00,SSW,210,3.0,16.0,71,0.00,,,-99.99,,2013-08-09 19:52:00,
2013-08-09 16:00:00,82.0,73.0,-100.00,SSW,205,1.0,12.0,72,0.00,,,-99.99,,2013-08-09 20:00:00,
2013-08-09 16:32:00,82.0,73.0,-100.00,SSW,205,1.0,12.0,72,0.00,,,-99.99,,2013-08-09 20:32:00,
2013-08-09 16:43:00,82.0,73.0,-100.00,SSW,205,1.0,12.0,72,0.00,,,-99.99,,2013-08-09 20:43:00,
2013-08-09 16:52:00,82.0,73.0,-100.00,SSW,205,1.0,12.0,72,0.00,,,-99.99,,2013-08-09 20:52:00,
2013-08-09 17:00:00,82.0,72.0,-100.00,WNW,289,5.0,15.0,72,0.00,,,-99.99,,2013-08-09 21:00:00,
2013-08-09 17:33:00,82.0,72.0,-100.00,WNW,289,5.0,15.0,72,0.00,,,-99.99,,2013-08-09 21:33:00,
2013-08-09 17:43:00,82.0,72.0,-100.00,WNW,289,5.0,15.0,72,0.00,,,-99.99,,2013-08-09 21:43:00,
2013-08-09 17:52:00,82.0,72.0,-100.00,WNW,289,5.0,15.0,72,0.00,,,-99.99,,2013-08-09 21:52:00,
2013-08-09 18:00:00,80.0,74.0,-100.00,WSW,251,3.0,14.0,81,0.00,,,-99.99,,2013-08-09 22:00:00,
2013-08-09 18:32:00,80.0,74.0,-100.00,WSW,251,3.0,14.0,81,0.00,,,-99.99,,2013-08-09 22:32:00,
2013-08-09 18:43:00,80.0,74.0,-100.00,WSW,251,3.0,14.0,81,0.00,,,-99.99,,2013-08-09 22:43:00,
2013-08-09 18:52:00,80.0,74.0,-100.00,WSW,251,3.0,14.0,81,0.00,,,-99.99,,2013-08-09 22:52:00,
2013-08-09 19:00:00,79.0,74.0,-100.00,SSW,211,3.0,5.0,85,0.06,,,-99.99,,2013-08-09 23:00:00,
2013-08-09 19:43:00,79.0,74.0,-100.00,SSW,211,3.0,5.0,85,0.06,,,-99.99,,2013-08-09 23:43:00,
2013-08-09 19:52:00,79.0,74.0,-100.00,SSW,211,3.0,5.0,85,0.06,,,-99.99,,2013-08-09 23:52:00,
2013-08-09 20:00:00,77.0,75.0,-100.00,South,180,0.0,7.0,94,0.09,,,-99.99,,2013-08-10 00:00:00,
2013-08-09 20:33:00,77.0,75.0,-100.00,South,180,0.0,7.0,94,0.09,,,-99.99,,2013-08-10 00:33:00,
2013-08-09 20:43:00,77.0,75.0,-100.00,South,180,0.0,7.0,94,0.09,,,-99.99,,2013-08-10 00:43:00,
2013-08-09 20:53:00,77.0,75.0,-100.00,South,180,0.0,7.0,94,0.09,,,-99.99,,2013-08-10 00:53:00,
2013-08-09 21:00:00,75.0,74.0,-100.00,SW,226,0.0,3.0,95,0.00,,,-99.99,,2013-08-10 01:00:00,
2013-08-09 21:32:00,75.0,74.0,-100.00,SW,226,0.0,3.0,95,0.00,,,-99.99,,2013-08-10 01:32:00,
2013-08-09 21:43:00,75.0,74.0,-100.00,SW,226,0.0,3.0,95,0.00,,,-99.99,,2013-08-10 01:43:00,
2013-08-09 21:52:00,75.0,74.0,-100.00,SW,226,0.0,3.0,95,0.00,,,-99.99,,2013-08-10 01:52:00,
2013-08-09 22:00:00,75.0,74.0,-100.00,South,185,0.0,1.0,96,0.00,,,-99.99,,2013-08-10 02:00:00,
2013-08-09 22:32:00,75.0,74.0,-100.00,South,185,0.0,1.0,96,0.00,,,-99.99,,2013-08-10 02:32:00,
2013-08-09 22:42:00,75.0,74.0,-100.00,South,185,0.0,1.0,96,0.00,,,-99.99,,2013-08-10 02:42:00,
2013-08-09 22:52:00,75.0,74.0,-100.00,South,185,0.0,1.0,96,0.00,,,-99.99,,2013-08-10 02:52:00,
2013-08-09 23:00:00,76.0,74.0,-100.00,SW,223,0.0,5.0,96,0.00,,,-99.99,,2013-08-10 03:00:00,
2013-08-09 23:32:00,76.0,74.0,-100.00,SW,223,0.0,5.0,96,0.00,,,-99.99,,2013-08-10 03:32:00,
2013-08-09 23:42:00,76.0,74.0,-100.00,SW,223,0.0,5.0,96,0.00,,,-99.99,,2013-08-10 03:42:00,
2013-08-09 23:52:00,76.0,74.0,-100.00,SW,223,0.0,5.0,96,0.00,,,-99.99,,2013-08-10 03:52:00,